Weather in Praslin Island

Seychelles     4°19′09″S   55°44′48″E
temp.,
°C
wind,
m/s
gust,
m/s
humid.,
%
clouds,
%
prec.,
mm/h
press.,
hPa
HPBL,
m
25 may, wed
wed2501:00+27s447929 0.1 1010645
04:00+27sse447912 0.1 1009563
07:00+27sse447819 0.3 1011485
10:00+27se447713 0.4 1013544
13:00+28e337517 0.1 1011469
16:00+28ene3374100 0.1 1010581
19:00+28e337678 0.3 1012470
22:00+28ese337511 0.9 1013648
26 may, thu
thu2601:00+27ese337623 0.5 1012590
04:00+27ese33768 0.8 1011657
07:00+27ese337612 0.8 1013295
10:00+28ese33725 0.8 1014696
13:00+27se227236 0.0 1012699
16:00+28se327399 0.0 1011784
19:00+28se3375100 0.0 1013766
22:00+27se337523 0.0 1014703
27 may, fri
fri2701:00+27sse447777 0.0 1012675
04:00+27sse4477100 0.0 1011766
07:00+27sse447593 0.0 1013649
10:00+27se347545 0.0 1014702
13:00+27se3375100 0.0 1012727
16:00+27sse447571 0.0 1010779
19:00+27sse347585 0.0 1012729
22:00+27sse447719 0.2 1013605
28 may, sat
sat2801:00+27sse55769 0.2 1011705
04:00+27sse447579 0.2 1011782
07:00+27sse457899 0.1 1012656
10:00+27sse447690 0.2 1013666
13:00+27sse557440 0.0 1012800
16:00+27sse557482 0.0 1011926
19:00+27sse667717 0.1 1012819
22:00+27sse77786 0.3 1013804
29 may, sun
sun2901:00+27s67795 0.0 1012724
04:00+27s777919 0.3 1011851
07:00+27sse777598 0.4 1012952
10:00+27sse6672100 0.4 10131051
13:00+27sse557199 0.0 1012835
16:00+27sse557111 0.0 1011887
19:00+27sse55716 0.0 1012835
22:00+27sse5573100 0.0 1013718